Crosby, ND

8:35 PM CST on February 21, 2017 (GMT -0600)
Crosby

Weather History for KD50 - February, 2014

Change the Weather History Date:

Sunday, February 2, 2014

  Actual Average (KISN) Record (KISN)
Temperature  
Mean Temperature 7 °F -  
Max Temperature 14 °F 21 °F 52 °F (1962)
Min Temperature 0 °F 0 °F -40 °F (1917)
Degree Days  
Heating Degree Days 58    
Moisture  
Dew Point 3 °F    
Average Humidity 79    
Maximum Humidity 92    
Minimum Humidity 67    
Precipitation  
Precipitation 0.04 in - - ()
Sea Level Pressure  
Sea Level Pressure 29.99 in    
Wind  
Wind Speed 11 mph (WSW)    
Max Wind Speed 20 mph    
Max Gust Speed 24 mph    
Visibility 10 miles    
Events Snow    
Averages and records for this station are not official NWS values.
T = Trace of Precipitation, MM = Missing Value Source: NWS Daily Summary

Daily Weather History Graph

Daily Weather History Graph

Search for Another Location

Airport or City:

Trip Planner

Search our weather history database for the weather conditions in past years. The results will help you decide how hot, cold, wet, or windy it might be!

Date:

Astronomy

Feb. 02, 2014 Rise Set
Actual Time 8:21 AM CST 5:52 PM CST
Civil Twilight 7:48 AM CST 6:26 PM CST
Nautical Twilight 7:10 AM CST 7:04 PM CST
Astronomical Twilight 6:33 AM CST 7:41 PM CST
Moon 9:29 AM CST (2/2) 10:03 PM CST (2/2)
Length of Visible Light 10h 38m
Length of Day
9h 30m
Waxing Crescent, 11% of the Moon is Illuminated
Feb 2
Waxing Crescent
Feb 6
First Quarter
Feb 14
Full
Feb 22
Last Quarter
Mar 1
New

Hourly Weather History & Observations

Time (CST) Temp. Windchill Dew Point Humidity Pressure Visibility Wind Dir Wind Speed Gust Speed Precip Events Conditions
12:15 AM 5.0 °F -8.1 °F -0.4 °F 78% 30.00 in 10.0 mi WSW 8.1 mph - N/A   Unknown
12:35 AM 5.0 °F -9.1 °F -0.4 °F 78% 30.00 in - SW 9.2 mph - N/A   Unknown
12:55 AM 5.0 °F -10.0 °F -0.4 °F 78% 30.00 in 10.0 mi SW 10.4 mph - N/A   Unknown
1:15 AM 3.2 °F -11.3 °F -0.4 °F 85% 30.00 in - SW 9.2 mph - N/A   Unknown
1:35 AM 1.4 °F -12.5 °F -0.4 °F 92% 29.99 in - SSW 8.1 mph - N/A   Unknown
1:55 AM 1.4 °F -12.5 °F -2.2 °F 85% 29.98 in - SSW 8.1 mph - N/A   Unknown
2:15 AM 3.2 °F -12.2 °F -0.4 °F 85% 29.98 in - SW 10.4 mph - N/A   Unknown
2:35 AM 6.8 °F -9.3 °F 1.4 °F 79% 29.97 in - WSW 12.7 mph - N/A   Unknown
2:55 AM 6.8 °F -8.6 °F 1.4 °F 79% 29.97 in - SW 11.5 mph - N/A   Unknown
3:15 AM 5.0 °F -10.8 °F -0.4 °F 78% 29.97 in - SW 11.5 mph - N/A   Unknown
3:35 AM 5.0 °F -10.0 °F -0.4 °F 78% 29.97 in - SW 10.4 mph - N/A   Unknown
3:55 AM 3.2 °F -13.1 °F -0.4 °F 85% 29.96 in - SW 11.5 mph - N/A   Unknown
4:15 AM 3.2 °F -12.2 °F -0.4 °F 85% 29.96 in - SW 10.4 mph - N/A   Unknown
4:35 AM 3.2 °F -13.9 °F -0.4 °F 85% 29.96 in - SW 12.7 mph - N/A   Unknown
4:55 AM 5.0 °F -13.0 °F -0.4 °F 78% 29.95 in - SW 15.0 mph - N/A   Unknown
5:15 AM 5.0 °F -11.6 °F -0.4 °F 78% 29.95 in - SW 12.7 mph - N/A   Unknown
5:35 AM 3.2 °F -13.9 °F -0.4 °F 85% 29.95 in - SW 12.7 mph - N/A   Unknown
5:55 AM 3.2 °F -13.9 °F -0.4 °F 85% 29.95 in - SSW 12.7 mph - N/A   Unknown
6:15 AM 3.2 °F -13.9 °F -0.4 °F 85% 29.94 in - SSW 12.7 mph - N/A   Unknown
6:35 AM 1.4 °F -14.5 °F -0.4 °F 92% 29.93 in - SSW 10.4 mph - N/A   Unknown
6:55 AM 1.4 °F -11.3 °F -0.4 °F 92% 29.93 in - SW 6.9 mph - N/A   Unknown
7:15 AM 1.4 °F -16.9 °F -2.2 °F 85% 29.92 in - SSW 13.8 mph - N/A   Unknown
7:35 AM 1.4 °F -14.5 °F -2.2 °F 85% 29.92 in - SW 10.4 mph - N/A   Unknown
7:55 AM 1.4 °F -16.1 °F -2.2 °F 85% 29.92 in - SSW 12.7 mph - N/A   Unknown
8:15 AM -0.4 °F -19.9 °F -2.2 °F 92% 29.92 in - SSW 15.0 mph - N/A   Unknown
8:35 AM -0.4 °F -19.2 °F -2.2 °F 92% 29.93 in - SSW 13.8 mph - N/A   Unknown
8:55 AM 1.4 °F -14.5 °F -2.2 °F 85% 29.93 in - SSW 10.4 mph - N/A   Unknown
9:15 AM 1.4 °F -16.1 °F -2.2 °F 85% 29.93 in - SW 12.7 mph - N/A   Unknown
9:35 AM 5.0 °F -12.3 °F -0.4 °F 78% 29.94 in - SW 13.8 mph - N/A   Unknown
9:55 AM 5.0 °F -10.8 °F -0.4 °F 78% 29.93 in - SW 11.5 mph - N/A   Unknown
10:15 AM 6.8 °F -9.3 °F -0.4 °F 72% 29.94 in 10.0 mi WSW 12.7 mph - N/A   Unknown
10:35 AM 8.6 °F -5.5 °F 1.4 °F 73% 29.95 in 10.0 mi WSW 10.4 mph - N/A   Unknown
10:55 AM 10.4 °F -4.1 °F 1.4 °F 67% 29.95 in 10.0 mi West 11.5 mph - N/A   Unknown
11:15 AM 10.4 °F -4.1 °F 1.4 °F 67% 29.95 in 10.0 mi WNW 11.5 mph - N/A   Unknown
11:35 AM 10.4 °F -4.8 °F 1.4 °F 67% 29.96 in 10.0 mi WNW 12.7 mph 18.4 mph N/A   Unknown
11:55 AM 10.4 °F -6.0 °F 3.2 °F 73% 29.96 in 10.0 mi WNW 15.0 mph - N/A   Unknown
12:15 PM 12.2 °F -4.3 °F 3.2 °F 67% 29.96 in 10.0 mi WNW 16.1 mph - N/A   Unknown
12:35 PM 12.2 °F -3.7 °F 5.0 °F 73% 29.97 in 10.0 mi WNW 15.0 mph - N/A   Unknown
12:55 PM 12.2 °F -5.3 °F 5.0 °F 73% 29.97 in 10.0 mi NW 18.4 mph 21.9 mph N/A   Unknown
1:15 PM 10.4 °F -6.6 °F 5.0 °F 79% 29.97 in 10.0 mi WNW 16.1 mph - N/A   Unknown
1:35 PM 10.4 °F -7.2 °F 5.0 °F 79% 29.97 in 9.0 mi WNW 17.3 mph - N/A Snow Light Snow
1:55 PM 12.2 °F -3.7 °F 5.0 °F 73% 29.98 in 10.0 mi NW 15.0 mph 20.7 mph N/A Snow Light Snow
2:15 PM 12.2 °F -4.3 °F 6.8 °F 79% 29.98 in 10.0 mi NW 16.1 mph 21.9 mph N/A Snow Light Snow
2:35 PM 10.4 °F -7.2 °F 6.8 °F 85% 29.99 in 10.0 mi WNW 17.3 mph 21.9 mph N/A Snow Light Snow
2:55 PM 12.2 °F -4.3 °F 6.8 °F 79% 29.99 in 10.0 mi NW 16.1 mph 20.7 mph N/A Snow Light Snow
3:15 PM 12.2 °F -5.8 °F 6.8 °F 79% 30.00 in 10.0 mi NW 19.6 mph - N/A Snow Light Snow
3:35 PM 14.0 °F -3.4 °F 6.8 °F 73% 30.00 in 10.0 mi NW 19.6 mph - N/A Snow Light Snow
3:55 PM 14.0 °F -2.5 °F 6.8 °F 73% 30.01 in 10.0 mi NW 17.3 mph 24.2 mph N/A Snow Light Snow
4:15 PM 14.0 °F -2.0 °F 8.6 °F 79% 30.01 in 7.0 mi NW 16.1 mph 20.7 mph N/A Snow Light Snow
4:35 PM 14.0 °F -0.8 °F 6.8 °F 73% 30.01 in 10.0 mi NW 13.8 mph 20.7 mph N/A Snow Light Snow
4:55 PM 12.2 °F -3.7 °F 6.8 °F 79% 30.02 in 5.0 mi WNW 15.0 mph - 0.01 in Snow Light Snow
5:15 PM 12.2 °F -1.8 °F 8.6 °F 85% 30.02 in 7.0 mi NW 11.5 mph - N/A Snow Light Snow
5:35 PM 12.2 °F -2.5 °F 6.8 °F 79% 30.02 in 10.0 mi WNW 12.7 mph - N/A Snow Light Snow
5:55 PM 12.2 °F -1.8 °F 6.8 °F 79% 30.03 in 6.0 mi NW 11.5 mph - 0.01 in Snow Light Snow
6:15 PM 10.4 °F -3.3 °F 6.8 °F 85% 30.04 in 7.0 mi NW 10.4 mph - 0.01 in Snow Light Snow
6:35 PM 10.4 °F -4.1 °F 5.0 °F 79% 30.04 in 10.0 mi WNW 11.5 mph - 0.02 in Snow Light Snow
6:55 PM 10.4 °F -0.4 °F 6.8 °F 85% 30.04 in 10.0 mi NW 6.9 mph - 0.02 in Snow Light Snow
7:15 PM 10.4 °F 0.8 °F 5.0 °F 79% 30.04 in 10.0 mi WNW 5.8 mph - N/A   Unknown
7:35 PM 10.4 °F 0.8 °F 5.0 °F 79% 30.05 in 10.0 mi WSW 5.8 mph - N/A   Unknown
7:55 PM 10.4 °F -1.5 °F 5.0 °F 79% 30.04 in 10.0 mi West 8.1 mph - N/A   Unknown
8:15 PM 10.4 °F -2.4 °F 5.0 °F 79% 30.04 in 10.0 mi West 9.2 mph - N/A   Unknown
8:35 PM 10.4 °F -2.4 °F 5.0 °F 79% 30.04 in 10.0 mi West 9.2 mph - N/A   Unknown
8:55 PM 10.4 °F -1.5 °F 5.0 °F 79% 30.04 in 10.0 mi West 8.1 mph - N/A   Unknown
9:15 PM 12.2 °F 0.7 °F 5.0 °F 73% 30.04 in 10.0 mi WSW 8.1 mph - N/A   Unknown
9:35 PM 12.2 °F -1.0 °F 5.0 °F 73% 30.04 in 10.0 mi West 10.4 mph - N/A   Unknown
9:55 PM 12.2 °F 0.7 °F 5.0 °F 73% 30.04 in 10.0 mi WSW 8.1 mph - N/A   Unknown
10:15 PM 12.2 °F 0.7 °F 5.0 °F 73% 30.04 in 10.0 mi WSW 8.1 mph - N/A   Unknown
10:35 PM 12.2 °F -1.0 °F 5.0 °F 73% 30.04 in 10.0 mi West 10.4 mph - N/A   Unknown
10:55 PM 12.2 °F -0.2 °F 6.8 °F 79% 30.04 in 10.0 mi WSW 9.2 mph - N/A Snow Light Snow
11:15 PM 12.2 °F -1.8 °F 6.8 °F 79% 30.04 in 10.0 mi West 11.5 mph - N/A Snow Light Snow
11:35 PM 12.2 °F -3.7 °F 5.0 °F 73% 30.04 in 10.0 mi West 15.0 mph - N/A   Unknown
11:55 PM 12.2 °F -3.1 °F 5.0 °F 73% 30.04 in 10.0 mi West 13.8 mph - N/A Snow Light Snow